Simultaneous Nadir Overpasses (SNOs) Predictions

Prediction of SNOs between AQUA and NPP Satellite Orbit:

Table of predicted SNOs for the next 14.0 days since TLE Epoch: 10/12/2019
Index Date (AQUA) Time (AQUA) Lat,Lon (AQUA) SZA (AQUA ) Date (NPP) Time (NPP) Lat,Lon (NPP) SZA (NPP ) Distance(km) Time Diff (sec)
1 10/13/2019 14:05:04 76.02,-152.24 104.07 10/13/2019 14:04:58 76.03,-152.16 104.05 2.45 6
2 10/13/2019 14:54:18 -76.70, 17.63 76.68 10/13/2019 14:55:29 -76.70, 17.57 76.73 1.64 71
3 10/16/2019 05:32:32 -74.84, 152.66 73.76 10/16/2019 05:31:34 -74.83, 152.61 73.69 1.61 58
4 10/16/2019 06:21:25 76.41, -35.13 104.58 10/16/2019 06:21:44 76.42, -35.03 104.54 2.91 19
5 10/18/2019 21:48:52 -75.29, -90.28 73.31 10/18/2019 21:48:19 -75.28, -90.32 73.26 1.43 33
6 10/18/2019 22:37:54 76.40, 80.73 105.51 10/18/2019 22:38:39 76.39, 80.65 105.49 2.21 45
7 10/21/2019 14:05:11 -75.77, 26.99 72.91 10/21/2019 14:05:03 -75.77, 26.96 72.90 0.80 8
8 10/21/2019 14:54:15 76.77,-162.12 106.01 10/21/2019 14:55:25 76.77,-162.16 105.96 1.13 70
9 10/24/2019 05:32:26 74.99, -26.94 108.80 10/24/2019 05:31:27 74.99, -26.95 108.86 0.21 59




NCC Satellite Simultaneous Nadir Overpasses (SNOs) Prediction Service
